Cozumel Airport, Mexico

7:27 PM EST on September 29, 2016 (GMT -0500)
Cozumel International

Weather History for MMCZ - September, 2013

Change the Weather History Date:

Thursday, September 19, 2013

  Actual Average Record
Temperature  
Mean Temperature 76 °F -  
Max Temperature 82 °F 88 °F 93 °F (1996)
Min Temperature 69 °F 76 °F 68 °F (2011)
Cooling Degree Days 10    
Growing Degree Days 26 (Base 50)    
Moisture  
Dew Point 74 °F    
Average Humidity 95    
Maximum Humidity 100    
Minimum Humidity 79    
Precipitation  
Precipitation 6.80 in - - ()
Sea Level Pressure  
Sea Level Pressure 29.88 in    
Wind  
Wind Speed 9 mph ()    
Max Wind Speed 15 mph    
Max Gust Speed 26 mph    
Visibility 6.3 miles    
Events Rain , Thunderstorm    
Averages and records for this station are not official NWS values.
T = Trace of Precipitation, MM = Missing Value Source: Averaged Metar Reports

Daily Weather History Graph

Daily Weather History Graph

Search for Another Location

Airport or City:

Trip Planner

Search our weather history database for the weather conditions in past years. The results will help you decide how hot, cold, wet, or windy it might be!

Date:

Astronomy

Sep. 19, 2013 Rise Set
Actual Time 6:35 AM CDT 6:46 PM CDT
Civil Twilight 6:13 AM CDT 7:08 PM CDT
Nautical Twilight 5:48 AM CDT 7:34 PM CDT
Astronomical Twilight 5:22 AM CDT 8:00 PM CDT
Moon 6:55 PM CDT (9/19) 6:38 AM CDT (9/19)
Length of Visible Light 12h 54m
Length of Day
12h 10m
Full, 100% of the Moon is Illuminated
Sep 19
Full
Sep 26
Last Quarter
Oct 4
New
Oct 11
First Quarter
Oct 18
Full

Hourly Weather History & Observations

Time (CDT) Temp. Heat Index Dew Point Humidity Pressure Visibility Wind Dir Wind Speed Gust Speed Precip Events Conditions
12:47 AM 77.0 °F - 75.2 °F 94% 29.86 in 7.0 mi ESE 13.8 mph - N/A   Mostly Cloudy
1:52 AM 77.0 °F - 75.2 °F 94% 29.86 in 7.0 mi ESE 11.5 mph - N/A   Mostly Cloudy
2:48 AM 77.0 °F - 75.2 °F 94% 29.85 in 7.0 mi East 9.2 mph - N/A   Overcast
3:44 AM 77.0 °F - 75.2 °F 94% 29.88 in 7.0 mi ESE 10.4 mph - N/A   Overcast
4:45 AM 75.2 °F - 73.4 °F 94% 29.85 in 7.0 mi ESE 8.1 mph - N/A   Overcast
5:47 AM 75.2 °F - 73.4 °F 94% 29.86 in 7.0 mi ESE 8.1 mph - N/A   Overcast
6:45 AM 75.2 °F - 73.4 °F 94% 29.86 in 7.0 mi ESE 8.1 mph - N/A   Mostly Cloudy
7:40 AM 75.2 °F - 75.2 °F 100% 29.88 in 7.0 mi ESE 8.1 mph - N/A   Mostly Cloudy
8:43 AM 77.0 °F - 77.0 °F 100% 29.90 in 7.0 mi ESE 10.4 mph - N/A   Mostly Cloudy
9:44 AM 78.8 °F - 75.2 °F 89% 29.93 in 7.0 mi ESE 11.5 mph 23.0 mph N/A   Mostly Cloudy
10:40 AM 80.6 °F 87.1 °F 77.0 °F 89% 29.92 in 7.0 mi SE 13.8 mph 26.5 mph N/A   Mostly Cloudy
11:46 AM 82.4 °F 89.5 °F 75.2 °F 79% 29.93 in 7.0 mi ESE 12.7 mph 24.2 mph N/A   Mostly Cloudy
12:42 PM 82.4 °F 89.5 °F 75.2 °F 79% 29.90 in 7.0 mi SE 15.0 mph 26.5 mph N/A   Mostly Cloudy
1:44 PM 82.4 °F 89.5 °F 75.2 °F 79% 29.88 in 7.0 mi SE 15.0 mph 26.5 mph N/A   Mostly Cloudy
2:42 PM 71.6 °F - 71.6 °F 100% 29.88 in 4.0 mi ESE 4.6 mph - N/A Rain Light Rain
2:47 PM 71.6 °F - 71.6 °F 100% 29.88 in 2.0 mi South 5.8 mph - N/A Rain Rain
3:51 PM 69.8 °F - 69.8 °F 100% 29.86 in 4.0 mi ESE 8.1 mph - N/A Rain , Thunderstorm Thunderstorms and Rain
4:15 PM 69.8 °F - 69.8 °F 100% 29.83 in 6.0 mi ENE 5.8 mph - N/A   Overcast
4:46 PM 69.8 °F - 69.8 °F 100% 29.87 in 6.0 mi East 6.9 mph - N/A   Overcast
5:41 PM 71.6 °F - 71.6 °F 100% 29.87 in 6.0 mi SE 3.5 mph - N/A   Overcast
6:50 PM 71.6 °F - 71.6 °F 100% 29.88 in 7.0 mi ESE 5.8 mph - N/A   Overcast
7:42 PM 73.4 °F - 73.4 °F 100% 29.88 in 6.0 mi ESE 8.1 mph - N/A   Mostly Cloudy
8:46 PM 73.4 °F - 73.4 °F 100% 29.91 in 6.0 mi ESE 8.1 mph - N/A   Mostly Cloudy
9:40 PM 75.2 °F - 75.2 °F 100% 29.95 in 6.0 mi ESE 9.2 mph - N/A   Mostly Cloudy
10:40 PM 73.4 °F - 73.4 °F 100% 29.92 in 7.0 mi ESE 4.6 mph - N/A   Mostly Cloudy
11:40 PM 73.4 °F - 73.4 °F 100% 29.92 in 7.0 mi ESE 12.7 mph - N/A   Mostly Cloudy